Bartlesville, OK

1:03 PM CST on February 23, 2018 (GMT -0600)
Bartlesville Municipal

Weather History for KBVO - January, 2013

Change the Weather History Date:

Saturday, January 26, 2013

  Actual Average Record
Temperature  
Mean Temperature 39 °F -  
Max Temperature 57 °F 48 °F 70 °F (2015)
Min Temperature 21 °F 25 °F 21 °F (2015)
Degree Days  
Heating Degree Days 26    
Moisture  
Dew Point 28 °F    
Average Humidity 58    
Maximum Humidity 96    
Minimum Humidity 26    
Precipitation  
Precipitation 0.00 in - - ()
Sea Level Pressure  
Sea Level Pressure 30.18 in    
Wind  
Wind Speed 5 mph (SSE)    
Max Wind Speed 18 mph    
Max Gust Speed 23 mph    
Visibility 10 miles    
Events Rain    
Averages and records for this station are not official NWS values.
T = Trace of Precipitation, MM = Missing Value Source: NWS Daily Summary

Daily Weather History Graph

Daily Weather History Graph

Search for Another Location

Airport or City:

Trip Planner

Search our weather history database for the weather conditions in past years. The results will help you decide how hot, cold, wet, or windy it might be!

Date:

Astronomy

Jan. 26, 2013 Rise Set
Actual Time 7:30 AM CST 5:43 PM CST
Civil Twilight 7:02 AM CST 6:11 PM CST
Nautical Twilight 6:31 AM CST 6:42 PM CST
Astronomical Twilight 6:00 AM CST 7:12 PM CST
Moon 5:38 PM CST (1/26) 6:49 AM CST (1/26)
Length of Visible Light 11h 08m
Length of Day
10h 13m
Full, 100% of the Moon is Illuminated
Jan 26
Full
Jan 26
Full
Feb 3
Last Quarter
Feb 10
New
Feb 17
First Quarter

Hourly Weather History & Observations

Time (CST) Temp. Windchill Dew Point Humidity Pressure Visibility Wind Dir Wind Speed Gust Speed Precip Events Conditions
12:53 AM 30.0 °F - 25.0 °F 82% 30.27 in 10.0 mi Calm Calm - N/A   Clear
1:53 AM 30.0 °F - 25.0 °F 82% 30.27 in 10.0 mi Calm Calm - N/A   Clear
2:53 AM 28.0 °F - 24.1 °F 85% 30.26 in 10.0 mi Calm Calm - N/A   Clear
3:53 AM 27.0 °F - 24.1 °F 89% 30.25 in 10.0 mi Calm Calm - N/A   Clear
5:53 AM 25.0 °F - 23.0 °F 92% 30.24 in 10.0 mi Calm Calm - N/A   Clear
6:53 AM 21.9 °F - 21.0 °F 96% 30.27 in 10.0 mi Calm Calm - N/A   Clear
7:53 AM 23.0 °F - 19.9 °F 88% 30.27 in 9.0 mi Calm Calm - N/A   Clear
8:53 AM 32.0 °F - 27.0 °F 82% 30.27 in 9.0 mi Calm Calm - N/A   Clear
9:53 AM 42.1 °F 37.7 °F 28.0 °F 58% 30.28 in 10.0 mi South 6.9 mph - N/A   Clear
10:53 AM 46.0 °F 42.5 °F 28.9 °F 51% 30.28 in 10.0 mi SSE 6.9 mph - N/A   Clear
11:53 AM 51.1 °F - 27.0 °F 39% 30.25 in 10.0 mi SSE 5.8 mph - N/A   Clear
12:53 PM 55.0 °F - 26.1 °F 33% 30.20 in 10.0 mi SSE 11.5 mph - N/A   Clear
1:53 PM 57.9 °F - 23.0 °F 26% 30.17 in 10.0 mi SSE 16.1 mph - N/A   Partly Cloudy
2:53 PM 57.0 °F - 26.1 °F 30% 30.15 in 10.0 mi SSE 12.7 mph - N/A   Mostly Cloudy
3:53 PM 55.0 °F - 25.0 °F 31% 30.14 in 10.0 mi South 10.4 mph - N/A   Clear
4:53 PM 54.0 °F - 26.1 °F 34% 30.14 in 10.0 mi South 9.2 mph - N/A   Overcast
5:53 PM 53.1 °F - 28.9 °F 40% 30.14 in 10.0 mi South 12.7 mph 18.4 mph N/A   Overcast
6:53 PM 50.0 °F - 33.1 °F 52% 30.15 in 10.0 mi South 12.7 mph 20.7 mph N/A   Overcast
7:02 PM 50.0 °F - 33.8 °F 54% 30.14 in 10.0 mi SSE 18.4 mph 23.0 mph N/A   Overcast
7:53 PM 48.9 °F - 33.1 °F 54% 30.15 in 10.0 mi SSE 11.5 mph - N/A   Overcast
8:29 PM 48.2 °F - 32.0 °F 54% 30.13 in 10.0 mi SSE 8.1 mph - N/A   Scattered Clouds
8:46 PM 48.2 °F - 30.2 °F 50% 30.12 in 10.0 mi SSE 11.5 mph - N/A   Mostly Cloudy
8:53 PM 48.0 °F - 30.0 °F 50% 30.12 in 10.0 mi SSE 11.5 mph - N/A   Mostly Cloudy
9:53 PM 48.0 °F - 28.9 °F 48% 30.11 in 10.0 mi SSE 10.4 mph - N/A   Overcast
10:36 PM 46.4 °F 41.5 °F 30.2 °F 53% 30.11 in 10.0 mi SSE 10.4 mph - N/A   Overcast
10:43 PM 46.4 °F 41.5 °F 30.2 °F 53% 30.10 in 10.0 mi SSE 10.4 mph - N/A   Overcast
10:53 PM 46.9 °F - 30.9 °F 54% 30.09 in 10.0 mi SSE 10.4 mph - 0.00 in Rain Light Rain
11:25 PM 46.4 °F 41.9 °F 32.0 °F 57% 30.10 in 10.0 mi South 9.2 mph - 0.00 in   Overcast
11:53 PM 46.0 °F 41.4 °F 32.0 °F 58% 30.10 in 10.0 mi South 9.2 mph - 0.00 in   Overcast